Wind from 260 at 16 knots

Air temperature 5.0° C
Visibility: greater than 5.4 NM
Dewpoint -4.0° C

Last reported at 2014-Apr-23 11:20 UTC.
Time now 2014-Apr-23 13:01 UTC

Location: N 69°18' E 016°09'.
View on Google Maps.

See reports from other nearby stations

Tides Stations Pressure Air Temp Water Temp Dewpoint Dewpoint depression Visibility Wind Speed Wind Dir Waves Ship positions

  
sailing weather and tide predictions

ANDOYA weather

date/time (UTC)wind fromknots sea level pressurealtimeterstation pressurevisibilityair tempwater tempwave heightnotes
2014-Apr-23 11:20 260 16 5.4 5.0
2014-Apr-23 10:50 260 15 5.4 5.0
2014-Apr-23 10:20 250 14 5.4 5.0
2014-Apr-23 09:50 250 14 5.4 4.0
2014-Apr-23 09:20 270 13 5.4 4.0
2014-Apr-23 08:50 270 12 5.4 4.0
2014-Apr-23 08:20 280 12 5.4 4.0
2014-Apr-23 07:50 290 12 5.4 3.0
2014-Apr-23 07:20 290 13 5.4 3.0
2014-Apr-23 06:50 310 14 5.4 3.0
2014-Apr-23 06:20 310 14 5.4 3.0
2014-Apr-23 05:50 300 14 5.4 3.0
2014-Apr-23 05:20 290 18 5.4 2.0
2014-Apr-23 04:50 270 11 5.4 2.0 Showers in the vicinity.
2014-Apr-23 04:20 260 14 5.4 2.0 Showers in the vicinity.
2014-Apr-23 03:50 260 15 5.4 2.0 Light snow showers.
2014-Apr-23 03:20 270 13 5.4 2.0
2014-Apr-23 02:50 270 10 5.4 1.0 Showers in the vicinity.
2014-Apr-23 01:50 280 10 5.4 1.0 Showers in the vicinity.
2014-Apr-23 00:50 300 14 5.4 1.0 Showers in the vicinity.
2014-Apr-22 23:50 310 18 5.4 1.0 Showers in the vicinity.
2014-Apr-22 22:50 320 17 5.4-0.0 Showers in the vicinity.
2014-Apr-22 21:50 310 17 5.4 1.0 Showers in the vicinity.
2014-Apr-22 20:50 320 18 5.4 1.0 Showers in the vicinity.
2014-Apr-22 19:50 310 22 5.4-0.0 Showers in the vicinity.
2014-Apr-22 18:50 330 17 5.4-1.0
2014-Apr-22 17:50 320 25 gusting 35 5.4-0.0
2014-Apr-22 17:20 300 20 5.4 1.0
2014-Apr-22 16:50 310 22 5.4-0.0
2014-Apr-22 16:20 310 24 5.4-0.0 Showers in the vicinity.
2014-Apr-22 15:50 300 19 5.4 1.0 Showers in the vicinity.
2014-Apr-22 15:20 320 19 5.4 1.0 Showers in the vicinity.
2014-Apr-22 14:50 310 19 5.4 1.0
2014-Apr-22 14:20 300 20 5.4 2.0
2014-Apr-22 13:50 280 12 5.4-0.0 Showers in the vicinity.
2014-Apr-22 13:20 300 23 gusting 34 5.4 2.0 Showers in the vicinity.
2014-Apr-22 12:50 290 22 5.4 1.0 Light snow showers.
2014-Apr-22 12:20 300 23 5.4 2.0 Light snow showers.
2014-Apr-22 11:50 290 23 5.4 2.0 Showers in the vicinity.
2014-Apr-22 11:20 290 20 5.4 2.0 Showers in the vicinity.
2014-Apr-22 10:50 280 23 5.4 2.0 Showers in the vicinity.
2014-Apr-22 10:20 280 22 5.4 2.0 Showers in the vicinity.
2014-Apr-22 09:50 300 25 5.4 1.0 Showers in the vicinity.
2014-Apr-22 09:20 290 24 5.4 1.0 Showers in the vicinity.
2014-Apr-22 08:50 290 22 5.4 1.0 Light snow showers.
2014-Apr-22 08:20 290 23 5.4 1.0 Showers in the vicinity.
2014-Apr-22 07:50 290 23 5.4 1.0 Light snow showers.
2014-Apr-22 07:20 290 24 gusting 35 5.4 1.0 Showers in the vicinity.
2014-Apr-22 06:50 290 25 5.4 1.0 Showers in the vicinity.
2014-Apr-22 06:20 310 24 5.4 1.0 Showers in the vicinity.
2014-Apr-22 05:50 300 27 5.4 1.0 Light small hail/snow pellets showers.
2014-Apr-22 05:20 290 27 5.4 1.0 Light small hail/snow pellets showers.
2014-Apr-22 04:50 290 27 5.4 1.0 Showers in the vicinity.
2014-Apr-22 04:20 290 29 gusting 39 5.4 1.0 Showers in the vicinity.
2014-Apr-22 03:50 290 29 gusting 39 5.4 1.0 Light small hail/snow pellets showers.
2014-Apr-22 03:20 290 26 gusting 38 5.4 1.0 Showers in the vicinity.
2014-Apr-22 02:50 300 27 gusting 39 5.4 1.0 Showers in the vicinity.
2014-Apr-22 01:50 290 27 5.4 1.0 Showers in the vicinity.
2014-Apr-22 00:50 280 25 gusting 38 5.4 1.0 Light snow showers.
2014-Apr-21 23:50 290 27 5.4 2.0 Showers in the vicinity.
2014-Apr-21 22:50 280 29 gusting 42 5.4 1.0 Light rain showers.
2014-Apr-21 21:50 270 29 gusting 39 5.4 3.0 Showers in the vicinity.
2014-Apr-21 20:50 270 25 5.4 3.0 Showers in the vicinity.
2014-Apr-21 19:50 280 24 5.4 3.0 Showers in the vicinity.
2014-Apr-21 18:50 250 20 gusting 33 5.4 3.0 Light rain showers.
2014-Apr-21 17:50 240 20 gusting 34 5.4 3.0
2014-Apr-21 17:20 250 23 gusting 34 5.4 4.0 Light rain showers.
2014-Apr-21 16:50 270 24 5.4 5.0 Light rain showers.
2014-Apr-21 16:20 250 19 gusting 29 5.4 5.0
2014-Apr-21 15:50 250 19 5.4 5.0
2014-Apr-21 15:20 240 17 gusting 30 5.4 5.0
2014-Apr-21 14:50 260 27 gusting 38 5.4 4.0 Rain showers.
2014-Apr-21 14:20 250 15 5.4 6.0
2014-Apr-21 13:50 250 23 5.4 6.0
2014-Apr-21 13:20 260 22 5.4 6.0